Hourly Data Report for June 10, 2012

All times are specified in Local Standard Time (LST). Add 1 hour to adjust for Daylight Saving Time where and when it is observed.

SAINT JOHN A
NEW BRUNSWICK

45°18'58.000" N
65°53'24.000" W
108.80 m
8104901
71609
YSJ

Download Data

Hourly Data (June 2012)
Hourly Data Report for June 10, 2012
Temp Definition
°C
Dew Point Temp Definition
°C
Rel Hum Definition
%
Wind Dir Definition
10's deg

Wind Spd Definition
km/h
Visibility Definition
km
Stn Press Definition
kPa
Hmdx Definition


Wind Chill Definition


Weather Definition


TIME
00:00 Legend Double Dagger 12.8 11.6 92 33 18 10.0 99.72     LegendNANA
01:00 Legend Double Dagger 12.6 11.7 94 35 15 10.0 99.77     LegendNANA
02:00 Legend Double Dagger 12.2 10.8 91 33 17 10.0 99.79     Cloudy
03:00 Legend Double Dagger 12.1 10.7 91 32 18 10.0 99.80     LegendNANA
04:00 Legend Double Dagger 11.8 11.0 95 33 24 10.0 99.85     LegendNANA
05:00 Legend Double Dagger 11.6 11.1 97 35 20 9.7 99.94     Fog
06:00 Legend Double Dagger 12.1 11.2 94 36 29 10.0 100.03     LegendNANA
07:00 Legend Double Dagger 12.3 11.4 94 36 24 10.0 100.12     LegendNANA
08:00 Legend Double Dagger 13.4 11.3 87 36 24 10.0 100.24     Mostly Cloudy
09:00 Legend Double Dagger 14.5 10.4 76 2 36 10.0 100.29     LegendNANA
10:00 Legend Double Dagger 15.0 10.1 72 1 29 10.0 100.37     LegendNANA
11:00 Legend Double Dagger 16.0 10.6 70 36 26 10.0 100.44     Mostly Cloudy
12:00 Legend Double Dagger 17.2 10.9 66 2 32 10.0 100.53     LegendNANA
13:00 Legend Double Dagger 18.6 11.3 62 2 28 10.0 100.51     LegendNANA
14:00 Legend Double Dagger 17.6 11.5 67 3 18 10.0 100.56     Mostly Cloudy
15:00 Legend Double Dagger 18.0 11.2 64 4 26 10.0 100.64     LegendNANA
16:00 Legend Double Dagger 17.8 11.4 66 4 17 10.0 100.77     LegendNANA
17:00 Legend Double Dagger 16.2 11.4 73 5 15 10.0 100.79     Mostly Cloudy
18:00 Legend Double Dagger 15.1 11.0 76 6 22 10.0 100.84     LegendNANA
19:00 Legend Double Dagger 14.9 11.0 77 2 19 10.0 100.93     LegendNANA
20:00 Legend Double Dagger 12.5 10.6 88 4 12 10.0 100.95     Mainly Clear
21:00 Legend Double Dagger 11.3 10.1 92 4 5 10.0 101.04     LegendNANA
22:00 Legend Double Dagger 11.0 10.1 94   0 10.0 101.13     LegendNANA
23:00 Legend Double Dagger 9.9 9.6 98 8 4 10.0 101.16     Clear

Notes on Data Quality.

Legend

  • E = Estimated
  • M = Missing
  • NA = Not Available
  • ‡ = Partner data that is not subject to review by the National Climate Archives
Date modified: